Weather History for Palm Springs, CA

Change the Weather History Date:

Saturday, November 30, 2013

  Actual Average Record
Temperature  
Mean Temperature 64 °F 58 °F  
Max Temperature 78 °F 70 °F 91 °F (1949)
Min Temperature 50 °F 47 °F 35 °F (1975)
Degree Days  
Heating Degree Days 1 7  
Month to date heating degree days 51 93  
Since 1 July heating degree days 61 96  
Cooling Degree Days 0 0  
Month to date cooling degree days 69 75  
Year to date cooling degree days 4506 4137  
Growing Degree Days 14 (Base 50)    
Moisture  
Dew Point 38 °F    
Average Humidity 45    
Maximum Humidity 71    
Minimum Humidity 19    
Precipitation  
Precipitation 0.00 in 0.02 in 1.28 in (2007)
Month to date precipitation 0.11 0.53  
Year to date precipitation 2.23 4.86  
Since 1 July precipitation 1.26 1.92  
Snow  
Snow 0.00 in - - ()
Month to date snowfall 0.0  
Year to date snowfall 0.0  
Since 1 July snowfall 0.0  
Snow Depth 0.00 in    
Sea Level Pressure  
Sea Level Pressure 30.16 in    
Wind  
Wind Speed 4 mph (NW)    
Max Wind Speed 9 mph    
Max Gust Speed 20 mph    
Visibility 10 miles    
Events      
T = Trace of Precipitation, MM = Missing Value Source: NWS Daily Summary

Daily Weather History Graph

Daily Weather History Graph

Search for Another Location

Airport:

Trip Planner

Search our weather history database for the weather conditions in past years. The results will help you decide how hot, cold, wet, or windy it might be!

Date:

Astronomy

Nov. 30, 2013 Rise Set
Actual Time 6:32 AM PST 4:37 PM PST
Civil Twilight 6:05 AM PST 5:04 PM PST
Nautical Twilight 5:34 AM PST 5:35 PM PST
Astronomical Twilight 5:04 AM PST 6:05 PM PST
Moon 3:54 AM PST 2:59 PM PST
Length of Visible Light 10h 59m
Length of Day
10h 05m
Waning Crescent, 6% of the Moon is Illuminated
Nov 30
Waning Crescent
Dec 2
New
Dec 9
First Quarter
Dec 17
Full
Dec 25
Last Quarter

Hourly Weather History & Observations

Time (PST) Temp. Dew Point Humidity Pressure Visibility Wind Dir Wind Speed Gust Speed Precip Events Conditions
12:53 AM 55.9 °F 43.0 °F 62% 30.18 in 10.0 mi NNW 8.1 mph - N/A   Clear
1:53 AM 53.1 °F 43.0 °F 69% 30.19 in 10.0 mi Calm Calm - N/A   Clear
2:53 AM 52.0 °F 42.1 °F 69% 30.18 in 10.0 mi NNW 4.6 mph - N/A   Scattered Clouds
3:53 AM 53.1 °F 41.0 °F 64% 30.18 in 10.0 mi NNW 6.9 mph - N/A   Clear
4:53 AM 52.0 °F 41.0 °F 66% 30.18 in 10.0 mi NNW 9.2 mph - N/A   Clear
5:53 AM 53.1 °F 39.9 °F 61% 30.20 in 10.0 mi NW 6.9 mph - N/A   Clear
6:53 AM 51.1 °F 39.9 °F 66% 30.21 in 10.0 mi NNW 6.9 mph - N/A   Clear
7:53 AM 55.0 °F 41.0 °F 59% 30.21 in 10.0 mi NNW 4.6 mph - N/A   Scattered Clouds
8:53 AM 64.9 °F 39.9 °F 40% 30.21 in 10.0 mi NNW 4.6 mph - N/A   Scattered Clouds
9:53 AM 70.0 °F 41.0 °F 35% 30.20 in 10.0 mi Calm Calm - N/A   Scattered Clouds
10:53 AM 73.0 °F 37.0 °F 27% 30.17 in 10.0 mi SW 5.8 mph - N/A   Clear
11:53 AM 75.9 °F 30.9 °F 19% 30.14 in 10.0 mi Calm Calm - N/A   Clear
12:53 PM 77.0 °F 32.0 °F 19% 30.10 in 10.0 mi Calm Calm - N/A   Scattered Clouds
1:53 PM 77.0 °F 32.0 °F 19% 30.09 in 10.0 mi South 6.9 mph - N/A   Scattered Clouds
2:53 PM 77.0 °F 32.0 °F 19% 30.08 in 10.0 mi SSE 3.5 mph - N/A   Scattered Clouds
3:53 PM 75.0 °F 36.0 °F 24% 30.10 in 10.0 mi SE 5.8 mph - N/A   Scattered Clouds
4:53 PM 71.1 °F 41.0 °F 34% 30.12 in 10.0 mi Variable 3.5 mph - N/A   Clear
5:53 PM 69.1 °F 39.9 °F 35% 30.14 in 10.0 mi Calm Calm - N/A   Scattered Clouds
6:53 PM 64.9 °F 42.1 °F 43% 30.15 in 10.0 mi WSW 4.6 mph - N/A   Clear
7:53 PM 66.0 °F 39.9 °F 38% 30.17 in 10.0 mi NW 5.8 mph - N/A   Clear
8:53 PM 64.0 °F 32.0 °F 30% 30.18 in 10.0 mi NNW 6.9 mph - N/A   Clear
9:53 PM 61.0 °F 32.0 °F 34% 30.18 in 10.0 mi NNW 5.8 mph - N/A   Clear
10:53 PM 59.0 °F 35.1 °F 41% 30.19 in 10.0 mi WNW 3.5 mph - N/A   Clear
11:53 PM 61.0 °F 34.0 °F 36% 30.18 in 10.0 mi West 6.9 mph - N/A   Clear